[[{"header":{"parameterUnit":"m.s-1","parameterCategory":1,"la1":30.2991,"la2":30.254,"lo1":-89.0895,"lo2":-89.0444,"dy":0.0017,"dx":0.0017,"nx":28,"ny":28,"refTime":"2025-08-02T21:00:00:Z","depth":0,"parameterNumber":2,"parameterNumberName":"U-component_of_WINDS"},"data":[0,0,0,0,0,0,0,0,0,0,0,0,0,0,0,0,0,0,0,0,0,0,0,0,0,0,0,0,0,0,0,0,0,0,0,0,0,0,0,0,0,0,0,0,0,0,0,0,0,0,0,0,0,0,0,0,0,0,1.2565,1.2565,0,1.2605,1.2605,1.2606,1.2602,1.2602,1.2601,1.2601,1.2638,1.2639,1.2641,0,0,0,0,0,0,0,0,0,0,0,0,0,1.2483,1.2484,1.2565,1.2565,1.2566,1.2605,1.2605,1.2606,1.2603,1.2602,1.2601,1.2601,1.2637,1.2639,1.2641,0,0,0,0,0,0,0,0,0,0,0,0,0,1.252,1.2485,1.2565,1.2569,1.257,1.2604,1.2605,1.2606,1.2603,1.2602,1.2601,1.26,1.2637,1.2639,1.2641,1.2673,0,0,1.2648,1.2649,0,0,0,0,0,0,0,0,1.2518,1.2523,1.2568,1.2569,1.257,1.2598,1.259,1.2628,1.2603,1.259,1.2601,1.26,1.2625,1.2628,1.2637,1.2674,1.2676,1.2648,1.265,1.2651,1.2651,0,0,0,0,0,0,0,1.2515,1.2521,1.2581,1.2569,1.257,1.2568,1.2572,1.2597,1.2612,1.2591,1.2591,1.2596,1.2625,1.2635,1.2638,1.2677,1.2648,1.265,1.2652,1.2653,1.2741,1.2742,0,0,0,0,0,0,1.2512,1.2519,1.2579,1.2582,1.2541,1.257,1.2575,1.259,1.2612,1.2614,1.2597,1.2596,1.2632,1.2635,1.2639,1.2677,1.2651,1.2653,1.2654,1.274,1.2741,1.2742,0,0,0,0,0,0,1.2511,1.2518,1.2578,1.2551,1.2558,1.2573,1.2589,1.2591,1.2601,1.2616,1.2618,1.2604,1.2631,1.2636,1.2665,1.2679,1.2654,1.2656,1.2739,1.274,1.2742,1.2754,0,0,0,0,0,0,1.2508,1.2517,1.253,1.2551,1.256,1.2603,1.259,1.2592,1.2605,1.2604,1.2624,1.2626,1.2631,1.2661,1.2667,1.2681,1.2658,1.2737,1.2739,1.2741,1.2752,1.2756,1.2759,0,0,0,0,0,1.2505,1.2531,1.2531,1.2538,1.2576,1.2604,1.2609,1.2615,1.2606,1.2619,1.2629,1.2625,1.2676,1.2664,1.267,1.2686,1.2737,1.2739,1.2741,1.2751,1.2755,1.2758,0,0,0,0,0,0,1.2511,1.2534,1.2534,1.2568,1.2584,1.2604,1.262,1.2619,1.2637,1.2636,1.2641,1.2646,1.2674,1.2683,1.2669,1.2717,1.2705,1.2709,1.2711,1.2715,1.2718,1.2715,1.266,0,0,0,0,0,1.2516,1.2538,1.2557,1.2585,1.2593,1.2605,1.2617,1.2621,1.2638,1.2644,1.2656,1.2671,1.269,1.2703,1.2722,1.2754,1.2757,1.2767,1.2771,1.2773,1.2776,1.2793,1.2797,1.2749,1.2749,1.2749,0,0,1.2527,1.2542,1.2555,1.2586,1.2599,1.2621,1.2611,1.2634,1.2649,1.2647,1.2675,1.2684,1.2701,1.2732,1.2745,1.274,1.279,1.2776,1.2778,1.2779,1.2795,1.28,1.2804,1.2751,1.275,1.275,0,0,1.2557,1.2571,1.2596,1.261,1.263,1.2638,1.2644,1.2664,1.267,1.2699,1.2697,1.2715,1.2749,1.2761,1.2772,1.2807,1.2804,1.2813,1.2829,1.2845,1.2849,1.2852,1.2864,1.2868,1.2816,1.2816,1.2816,0,1.2567,1.2601,1.2608,1.2632,1.2645,1.2646,1.267,1.2682,1.2707,1.2716,1.2709,1.2752,1.2763,1.2796,1.2805,1.2814,1.282,1.281,1.2848,1.2851,1.2855,1.2866,1.287,1.2817,1.2817,1.2816,1.2816,0,1.2612,1.2635,1.2652,1.2678,1.2693,1.2717,1.2727,1.2741,1.2743,1.2751,1.278,1.2794,1.2815,1.2823,1.2825,1.2856,1.2852,1.2847,1.2835,1.286,1.2871,1.2875,1.2818,1.2818,1.2817,1.2817,0,0,1.2646,1.2676,1.2682,1.2694,1.2717,1.2734,1.2757,1.278,1.2791,1.2809,1.2827,1.2856,1.2851,1.2864,1.2867,1.2881,1.2907,1.2874,1.2874,1.2879,1.2942,1.2945,1.295,1.2906,1.2907,1.2908,1.294,0,1.2678,1.2721,1.2729,1.2766,1.2787,1.2788,1.2808,1.2823,1.2831,1.2849,1.2858,1.2878,1.2871,1.2878,1.2892,1.2901,1.292,1.2899,1.2922,1.2923,1.2918,1.2956,1.2959,1.2989,1.2944,1.2945,1.2945,0,1.2721,1.2741,1.278,1.2801,1.281,1.2828,1.2849,1.2866,1.2883,1.2888,1.2902,1.2904,1.2927,1.2914,1.2945,1.2931,1.2941,1.2947,1.2948,1.295,1.2935,1.2958,1.2999,1.3003,1.2952,1.2952,1.2951,0,1.2741,1.2778,1.2806,1.2816,1.284,1.2853,1.2863,1.288,1.2893,1.291,1.2919,1.2938,1.2949,1.2964,1.297,1.2961,1.3001,1.2989,1.3004,1.3004,1.3012,1.3011,1.3054,1.302,1.302,1.302,1.302,0,1.2776,1.28,1.2815,1.2833,1.2859,1.2867,1.2893,1.2903,1.2917,1.2935,1.2937,1.2954,1.2962,1.2979,1.2985,1.3009,1.3014,1.3018,1.3018,1.3017,1.3016,1.3023,1.3021,1.3021,1.3021,1.302,1.302,0,1.2802,1.2814,1.2845,1.2866,1.2871,1.289,1.2907,1.2923,1.2932,1.2954,1.296,1.2973,1.2994,1.3002,1.3027,1.3031,1.3059,1.3058,1.3053,1.3053,1.3068,1.3066,1.3116,1.3123,1.3085,1.3085,1.3085,0,1.2823,1.2842,1.2865,1.2878,1.289,1.291,1.2924,1.2933,1.2946,1.2967,1.2981,1.3002,1.3019,1.3052,1.3063,1.3082,1.3081,1.3098,1.3084,1.3082,1.3081,1.3079,1.3081,1.31,1.31,1.31,1.3101,0,1.2859,1.2864,1.2884,1.2907,1.2923,1.2941,1.2957,1.2968,1.2979,1.2994,1.3016,1.3029,1.3056,1.3076,1.3096,1.3105,1.3104,1.3105,1.311,1.3108,1.3104,1.3106,1.3059,1.3104,1.3103,1.3103,1.3103,1.3103,1.2883,1.2899,1.2919,1.2941,1.2955,1.2971,1.2987,1.2998,1.3017,1.304,1.3044,1.3067,1.3083,1.311,1.312,1.3137,1.3133,1.314,1.3141,1.3142,1.3143,1.3102,1.3141,1.3141,1.3141,1.3141,1.3141,0,1.2918,1.2931,1.2951,1.2976,1.2993,1.2993,1.3011,1.3025,1.3046,1.3062,1.308,1.3105,1.3125,1.3137,1.3157,1.3169,1.3169,1.3173,1.3172,1.3174,1.3146,1.314,1.3173,1.3173,1.3173,1.3173,1.3173,1.3173,1.2938,1.2966,1.2973,1.3008,1.302,1.3044,1.3054,1.3069,1.3081,1.311,1.3127,1.3136,1.315,1.3171,1.3189,1.3192,1.3198,1.3203,1.3206,1.3179,1.3176,1.3173,1.3167,1.3205,1.3205,1.3232,1.3232,1.3233]},{"header":{"parameterUnit":"m.s-1","parameterCategory":1,"la1":30.2991,"la2":30.254,"lo1":-89.0895,"lo2":-89.0444,"dy":0.0017,"dx":0.0017,"nx":28,"ny":28,"refTime":"2025-08-02T21:00:00:Z","depth":0,"parameterNumber":3,"parameterNumberName":"V-component_of_WINDS"},"data":[0,0,0,0,0,0,0,0,0,0,0,0,0,0,0,0,0,0,0,0,0,0,0,0,0,0,0,0,0,0,0,0,0,0,0,0,0,0,0,0,0,0,0,0,0,0,0,0,0,0,0,0,0,0,0,0,0,0,0.2032,0.2033,0,0.2133,0.2134,0.2135,0.2186,0.2186,0.2186,0.2186,0.2294,0.2296,0.2299,0,0,0,0,0,0,0,0,0,0,0,0,0,0.1888,0.189,0.2032,0.2033,0.2035,0.2132,0.2134,0.2135,0.2186,0.2186,0.2186,0.2186,0.2293,0.2296,0.2299,0,0,0,0,0,0,0,0,0,0,0,0,0,0.1966,0.1891,0.2032,0.2072,0.2076,0.2132,0.2134,0.2135,0.2186,0.2186,0.2186,0.2186,0.2292,0.2296,0.23,0.2326,0,0,0.2313,0.2315,0,0,0,0,0,0,0,0,0.1961,0.1971,0.2065,0.2069,0.2074,0.2146,0.2122,0.2199,0.2186,0.2144,0.2186,0.2186,0.2245,0.2253,0.2272,0.2331,0.2335,0.2313,0.2316,0.2318,0.2319,0,0,0,0,0,0,0,0.1956,0.1967,0.2072,0.2066,0.2072,0.2085,0.2096,0.2137,0.2193,0.2148,0.2152,0.2163,0.2248,0.2268,0.2275,0.2337,0.2313,0.2317,0.232,0.2321,0.242,0.242,0,0,0,0,0,0,0.1943,0.1962,0.2069,0.2075,0.2016,0.2088,0.21,0.2123,0.2193,0.2204,0.2163,0.2165,0.226,0.227,0.2279,0.2313,0.2318,0.2322,0.2324,0.242,0.242,0.242,0,0,0,0,0,0,0.194,0.1952,0.2065,0.202,0.2035,0.209,0.2116,0.2125,0.2145,0.2204,0.2215,0.2172,0.2261,0.2273,0.2313,0.2317,0.2324,0.2328,0.242,0.242,0.242,0.238,0,0,0,0,0,0,0.1936,0.1951,0.1961,0.2019,0.2037,0.2096,0.2116,0.2127,0.2152,0.2156,0.2216,0.2226,0.2262,0.2306,0.2317,0.2323,0.2331,0.242,0.242,0.242,0.2382,0.2379,0.2377,0,0,0,0,0,0.193,0.1947,0.1961,0.1973,0.205,0.2096,0.2107,0.2145,0.2152,0.2163,0.22,0.2224,0.2314,0.231,0.2323,0.233,0.242,0.242,0.242,0.2383,0.238,0.2377,0,0,0,0,0,0,0.189,0.1956,0.1972,0.2008,0.2045,0.2105,0.212,0.2141,0.218,0.2182,0.223,0.2243,0.2278,0.2308,0.2302,0.2358,0.237,0.2372,0.2337,0.2334,0.2332,0.2324,0.2334,0,0,0,0,0,0.1885,0.1915,0.1972,0.1998,0.2016,0.2064,0.2086,0.2112,0.2154,0.2171,0.2211,0.2252,0.229,0.2314,0.2352,0.2386,0.24,0.2397,0.2395,0.2392,0.2395,0.2414,0.2413,0.2421,0.2421,0.2421,0,0,0.1875,0.1915,0.1932,0.1991,0.2023,0.2054,0.2077,0.211,0.2134,0.2177,0.2216,0.2247,0.2296,0.2332,0.2351,0.2358,0.2395,0.2393,0.239,0.2394,0.2414,0.2413,0.2412,0.2421,0.2421,0.2421,0,0,0.1874,0.1907,0.1932,0.1963,0.2011,0.2042,0.2048,0.2103,0.2125,0.2164,0.2196,0.2226,0.229,0.2323,0.2348,0.2356,0.2379,0.2367,0.2355,0.2373,0.2372,0.2372,0.2374,0.2375,0.2369,0.2368,0.2368,0,0.1857,0.1904,0.1942,0.1972,0.1997,0.2034,0.2059,0.2089,0.2147,0.2164,0.2171,0.225,0.2286,0.233,0.2331,0.2351,0.2359,0.2361,0.2369,0.2369,0.237,0.2372,0.2373,0.2367,0.2367,0.2367,0.2367,0,0.188,0.1912,0.1926,0.1979,0.2005,0.2033,0.2076,0.2098,0.2121,0.2152,0.2192,0.2235,0.2282,0.2294,0.2319,0.2341,0.2344,0.236,0.2373,0.2366,0.2369,0.2371,0.2364,0.2365,0.2365,0.2366,0,0,0.1858,0.1929,0.1934,0.1957,0.2011,0.2038,0.2066,0.211,0.2127,0.2166,0.2192,0.2243,0.2257,0.2285,0.2313,0.2329,0.2331,0.2342,0.2344,0.2338,0.2358,0.2346,0.2347,0.2346,0.2347,0.2347,0.2354,0,0.1864,0.1916,0.195,0.1989,0.2018,0.2053,0.2078,0.2114,0.2143,0.2173,0.2206,0.2241,0.2257,0.2274,0.2291,0.2327,0.2336,0.2327,0.2372,0.2373,0.2358,0.2349,0.2337,0.2341,0.2355,0.2356,0.2356,0,0.1878,0.1913,0.1954,0.2003,0.2016,0.2038,0.2079,0.2108,0.2149,0.2169,0.2199,0.2227,0.2259,0.2268,0.2314,0.2307,0.2327,0.2347,0.2348,0.2355,0.2364,0.2354,0.2343,0.2344,0.2358,0.2358,0.2358,0,0.1857,0.1914,0.1946,0.1965,0.2023,0.2037,0.2062,0.2104,0.2127,0.2163,0.2179,0.2219,0.2242,0.2272,0.231,0.2314,0.2352,0.2364,0.237,0.2368,0.2377,0.2376,0.2369,0.2389,0.2389,0.2389,0.2389,0,0.1861,0.1884,0.1937,0.1956,0.1983,0.2022,0.2048,0.2077,0.2113,0.2139,0.2172,0.2195,0.2244,0.2274,0.2304,0.2336,0.2346,0.2364,0.2372,0.2361,0.2359,0.2375,0.2376,0.2389,0.2389,0.2389,0.2389,0,0.1843,0.1878,0.1915,0.1965,0.1979,0.1996,0.204,0.2061,0.209,0.2122,0.2132,0.2179,0.2216,0.2256,0.2308,0.2328,0.2358,0.2369,0.2343,0.2348,0.235,0.2349,0.2354,0.2356,0.2375,0.2374,0.2374,0,0.1842,0.1861,0.1912,0.1931,0.1954,0.1984,0.2007,0.2046,0.2068,0.2115,0.213,0.2168,0.2201,0.2258,0.2298,0.2337,0.2349,0.2348,0.2355,0.2343,0.2349,0.2347,0.2349,0.2346,0.2346,0.2345,0.2345,0,0.1838,0.1854,0.1885,0.1921,0.1946,0.1977,0.201,0.2023,0.2069,0.2092,0.2129,0.2154,0.2204,0.2242,0.2285,0.2312,0.2336,0.2342,0.2345,0.2335,0.2319,0.2327,0.2337,0.2342,0.2342,0.2342,0.2343,0.2343,0.1829,0.1846,0.1884,0.1917,0.1944,0.1973,0.1994,0.2025,0.2055,0.2098,0.2119,0.2155,0.2195,0.2255,0.2281,0.231,0.2318,0.2323,0.2324,0.2325,0.2321,0.2313,0.2318,0.2318,0.2319,0.2319,0.2319,0,0.1826,0.1851,0.1881,0.1923,0.1949,0.1966,0.2002,0.2023,0.2053,0.2088,0.2118,0.2159,0.2195,0.2236,0.2275,0.2291,0.2303,0.23,0.2299,0.2305,0.2313,0.2306,0.2289,0.2289,0.2289,0.2289,0.2289,0.2289,0.1828,0.1857,0.1877,0.1921,0.1947,0.198,0.1999,0.2026,0.2053,0.2097,0.2126,0.2151,0.2189,0.223,0.2264,0.2275,0.2288,0.2282,0.2296,0.2302,0.2305,0.2307,0.2301,0.2284,0.2284,0.2286,0.2286,0.2286]}]]